This is the latest recevied weather packets stored in our database for station/object KC1DMA. If no packets are shown the sender has not sent any weather packets the latest 10 day(s).
| Time | Temp. | Humidity | Pressure | Rain* | Wind** | Luminosity | Snow |
|---|---|---|---|---|---|---|---|
| 1777653909 | 13.89° C | 45% | 1012.9 hPa | - | - | 811 W/m² | - |
| 1777653606 | 13.89° C | 43% | 1012.8 hPa | - | - | 1020 W/m² | - |
| 1777653302 | 13.33° C | 43% | 1013 hPa | - | - | 962 W/m² | - |
| 1777652998 | 13.33° C | 43% | 1013.1 hPa | - | - | 953 W/m² | - |
| 1777652695 | 13.33° C | 43% | 1013 hPa | - | - | 1035 W/m² | - |
| 1777652392 | 13.33° C | 42% | 1013 hPa | - | - | 945 W/m² | - |
| 1777652089 | 12.78° C | 44% | 1013.1 hPa | - | - | 193 W/m² | - |
| 1777651786 | 12.78° C | 47% | 1012.9 hPa | - | - | 922 W/m² | - |
| 1777651482 | 12.78° C | 47% | 1013.1 hPa | - | - | 922 W/m² | - |
| 1777651180 | 13.33° C | 47% | 1013.3 hPa | - | - | 855 W/m² | - |
| 1777650877 | 12.78° C | 45% | 1013.2 hPa | - | - | 851 W/m² | - |
| 1777650573 | 12.22° C | 48% | 1013.3 hPa | - | - | 824 W/m² | - |
| 1777650271 | 12.22° C | 48% | 1013.3 hPa | - | - | 824 W/m² | - |
| 1777649968 | 12.22° C | 47% | 1013.3 hPa | - | - | 836 W/m² | - |
| 1777649666 | 12.78° C | 49% | 1013.2 hPa | - | - | 840 W/m² | - |
| 1777649361 | 12.78° C | 47% | 1013.4 hPa | - | - | 350 W/m² | - |
| 1777649059 | 12.22° C | 51% | 1013.3 hPa | - | - | 832 W/m² | - |
| 1777648756 | 11.67° C | 49% | 1013.6 hPa | - | - | 854 W/m² | - |
| 1777648452 | 12.78° C | 53% | 1013.4 hPa | - | - | 832 W/m² | - |
| 1777648149 | 12.78° C | 53% | 1013.2 hPa | - | - | 801 W/m² | - |
| 1777647845 | 11.11° C | 52% | 1013.5 hPa | - | - | 176 W/m² | - |
| 1777647541 | 11.11° C | 55% | 1013.6 hPa | - | - | 832 W/m² | - |
| 1777647238 | 11.67° C | 54% | 1013.6 hPa | - | - | 834 W/m² | - |
| 1777646935 | 11.11° C | 59% | 1013.8 hPa | - | - | 794 W/m² | - |
| 1777646630 | 11.11° C | 53% | 1013.6 hPa | - | - | 832 W/m² | - |
* Rain since midnight (hover to see other rain measurements)
** Current wind speed in m/s (hover to see current wind gust speed)